Tracking 25648 objects as of 17-May-2022
HD Live streaming from Space Station
objects crossing your sky now

COSMOS 2251 DEB

Track COSMOS 2251 DEB now!
10-day predictions


NORAD ID: 36073
Int'l Code: 1993-036AYL
Perigee: 771.8 km
Apogee: 809.6 km
Inclination: 74.0 °
Period: 100.5 minutes
Semi major axis: 7161 km
RCS: 0.011 m2 (small)
Launch date: June 16, 1993
Source: Commonwealth of Independent States (former USSR) (CIS)
Launch site: PLESETSK MISSILE AND SPACE COMPLEX (PKMTR)

Note: This is SATELLITE DEBRIS
aabbcc
Your satellite tracking list
Your tracking list is empty




NASA's NSSDC Master Catalog

Two Line Element Set (TLE):
1 36073U 93036AYL 22137.40200743  .00000467  00000-0  18128-3 0  9995
2 36073  74.0323 189.9278 0026438 219.0923 140.8319 14.32450201515024
Source of the keplerian elements: AFSPC